EZY17LA EGCC-LFPG

Flight info

Callsign EZY17LA
Flight time N/A
Altitude 35000
Route LISTO P18 TELBA L151 MID/N0435F370 Y803 SFD UM605 BIBAX
Aircraft A320/M-SDE2E3FGHIJ1RWXYZ/LB1

Departure

Time 2026-05-01 15:16
Airport Manchester Airport (EGCC)

Arrival

Time N/A
Airport Charles de Gaulle International Airport (LFPG)
Time Latitude Longitude Altitude Speed Heading
2026-05-01 14:30 53.36948 -2.28696 255 ft 0 kts 134°
2026-05-01 14:57 53.36963 -2.28722 255 ft 4 kts 135°
2026-05-01 14:58 53.36976 -2.28743 255 ft 4 kts 175°
2026-05-01 14:58 53.36994 -2.28729 255 ft 3 kts 225°
2026-05-01 14:58 53.37012 -2.28699 255 ft 2 kts 225°
2026-05-01 14:58 53.37013 -2.28697 255 ft 0 kts 225°
2026-05-01 15:01 53.36994 -2.28730 255 ft 7 kts 225°
2026-05-01 15:02 53.36944 -2.28816 255 ft 13 kts 224°
2026-05-01 15:02 53.36921 -2.28852 255 ft 14 kts 223°
2026-05-01 15:02 53.36789 -2.29032 255 ft 16 kts 199°
2026-05-01 15:02 53.36704 -2.28967 255 ft 15 kts 134°
2026-05-01 15:03 53.36623 -2.28875 255 ft 14 kts 146°
2026-05-01 15:03 53.36569 -2.28747 255 ft 13 kts 125°
2026-05-01 15:03 53.36515 -2.28632 255 ft 12 kts 126°
2026-05-01 15:03 53.36454 -2.28542 255 ft 11 kts 137°
2026-05-01 15:04 53.36404 -2.28416 255 ft 15 kts 112°
2026-05-01 15:04 53.36340 -2.28276 255 ft 15 kts 134°
2026-05-01 15:04 53.36269 -2.28157 255 ft 14 kts 135°
2026-05-01 15:04 53.36199 -2.28039 255 ft 14 kts 135°
2026-05-01 15:05 53.36127 -2.27936 255 ft 14 kts 142°
2026-05-01 15:05 53.36039 -2.27822 255 ft 18 kts 142°
2026-05-01 15:05 53.35928 -2.27728 255 ft 19 kts 174°
2026-05-01 15:05 53.35816 -2.27718 252 ft 16 kts 153°
2026-05-01 15:06 53.35708 -2.27626 247 ft 19 kts 158°
2026-05-01 15:06 53.35622 -2.27509 246 ft 14 kts 112°
2026-05-01 15:06 53.35658 -2.27377 251 ft 10 kts 51°
2026-05-01 15:06 53.35693 -2.27304 255 ft 9 kts 52°
2026-05-01 15:07 53.35737 -2.27210 255 ft 11 kts 51°
2026-05-01 15:07 53.35791 -2.27097 255 ft 13 kts 52°
2026-05-01 15:07 53.35839 -2.26974 256 ft 12 kts 57°
2026-05-01 15:07 53.35886 -2.26866 256 ft 11 kts 52°
2026-05-01 15:08 53.35929 -2.26765 256 ft 10 kts 56°
2026-05-01 15:08 53.35975 -2.26664 256 ft 12 kts 51°
2026-05-01 15:08 53.36028 -2.26554 256 ft 12 kts 51°
2026-05-01 15:08 53.36078 -2.26450 256 ft 11 kts 51°
2026-05-01 15:09 53.36129 -2.26344 255 ft 11 kts 51°
2026-05-01 15:09 53.36186 -2.26253 255 ft 12 kts 34°
2026-05-01 15:09 53.36249 -2.26141 255 ft 13 kts 52°
2026-05-01 15:09 53.36269 -2.26047 255 ft 7 kts 90°
2026-05-01 15:10 53.36273 -2.25968 255 ft 6 kts 72°
2026-05-01 15:10 53.36286 -2.25900 256 ft 0 kts 77°
2026-05-01 15:13 53.36250 -2.25767 260 ft 9 kts 151°
2026-05-01 15:14 53.36178 -2.25834 259 ft 0 kts 230°
2026-05-01 15:15 53.35932 -2.26343 264 ft 89 kts 231°
2026-05-01 15:15 53.34739 -2.28824 745 ft 155 kts 235°
2026-05-01 15:16 53.33308 -2.31781 1889 ft 181 kts 231°
2026-05-01 15:16 53.32230 -2.35821 2700 ft 215 kts 277°
2026-05-01 15:17 53.32611 -2.41237 3705 ft 250 kts 254°
2026-05-01 15:18 53.28445 -2.45086 6314 ft 254 kts 179°
2026-05-01 15:18 53.26706 -2.44551 7267 ft 256 kts 162°
2026-05-01 15:19 53.21945 -2.40223 10069 ft 261 kts 155°
2026-05-01 15:19 53.18631 -2.37391 11434 ft 277 kts 155°
2026-05-01 15:19 53.16887 -2.35930 12109 ft 285 kts 156°
2026-05-01 15:20 53.13275 -2.32878 13356 ft 304 kts 155°
2026-05-01 15:20 53.11338 -2.31187 13911 ft 316 kts 154°
2026-05-01 15:20 53.09396 -2.29480 14414 ft 324 kts 154°
2026-05-01 15:21 53.07357 -2.27696 15016 ft 329 kts 155°
2026-05-01 15:21 53.05314 -2.25914 15651 ft 333 kts 155°
2026-05-01 15:21 53.03252 -2.24118 16301 ft 337 kts 155°
2026-05-01 15:21 53.01190 -2.22326 16942 ft 340 kts 155°
2026-05-01 15:22 52.96948 -2.18644 18246 ft 347 kts 155°
2026-05-01 15:22 52.94799 -2.16785 18822 ft 350 kts 155°
2026-05-01 15:22 52.92629 -2.14909 19389 ft 353 kts 155°
2026-05-01 15:23 52.90442 -2.13022 19974 ft 356 kts 155°
2026-05-01 15:23 52.88240 -2.11120 20545 ft 358 kts 155°
2026-05-01 15:23 52.86027 -2.09208 21096 ft 360 kts 155°
2026-05-01 15:23 52.83795 -2.07282 21648 ft 363 kts 155°
2026-05-01 15:24 52.81548 -2.05346 22178 ft 365 kts 155°
2026-05-01 15:24 52.79286 -2.03402 22706 ft 368 kts 155°
2026-05-01 15:24 52.77004 -2.01445 23232 ft 371 kts 155°
2026-05-01 15:24 52.74707 -1.99475 23690 ft 373 kts 155°
2026-05-01 15:25 52.72394 -1.97498 24101 ft 376 kts 155°
2026-05-01 15:25 52.70067 -1.95513 24527 ft 378 kts 155°
2026-05-01 15:25 52.67722 -1.93514 24941 ft 380 kts 155°
2026-05-01 15:25 52.65367 -1.91509 25351 ft 382 kts 155°
2026-05-01 15:26 52.62995 -1.89490 25764 ft 385 kts 155°
2026-05-01 15:26 52.60616 -1.87466 26163 ft 387 kts 155°
2026-05-01 15:26 52.58214 -1.85424 26561 ft 389 kts 155°
2026-05-01 15:26 52.55805 -1.83376 26955 ft 391 kts 155°
2026-05-01 15:27 52.53385 -1.81320 27337 ft 393 kts 155°
2026-05-01 15:27 52.50947 -1.79257 27718 ft 395 kts 155°
2026-05-01 15:27 52.48495 -1.77188 28097 ft 397 kts 155°
2026-05-01 15:28 52.43546 -1.73020 28821 ft 402 kts 155°
2026-05-01 15:28 52.41053 -1.70921 29186 ft 404 kts 155°
2026-05-01 15:28 52.38547 -1.68813 29547 ft 406 kts 155°
2026-05-01 15:29 52.33680 -1.63990 30214 ft 414 kts 146°
2026-05-01 15:29 52.31368 -1.61164 30497 ft 416 kts 146°
2026-05-01 15:29 52.26704 -1.55501 31030 ft 420 kts 146°
2026-05-01 15:30 52.21974 -1.49800 31519 ft 425 kts 146°
2026-05-01 15:31 52.12473 -1.38379 32955 ft 423 kts 146°
2026-05-01 15:31 52.07741 -1.32721 33667 ft 422 kts 146°
2026-05-01 15:32 52.03013 -1.27071 34340 ft 421 kts 146°
2026-05-01 15:32 51.98293 -1.21439 34913 ft 421 kts 146°
2026-05-01 15:33 51.91262 -1.13090 35136 ft 412 kts 146°
2026-05-01 15:34 51.84334 -1.04902 35135 ft 411 kts 146°